GW4661 Weather Reports


Display with metric or nautical units.
time (UTC)temp
F
wind
direction
speed
MPH
gust
MPH
rain 1hr
in
rain 24hr
in
rain mn
in
humidity
%
barometer
mb
20260505052511 56 0 0.0 2.0 0.00 0.00 0.00 86 1012.1
20260505052009 55 0 0.0 3.0 0.00 0.00 0.00 86 1012.0
20260505051530 55 166 0.0 3.0 0.00 0.00 0.00 87 1012.1
20260505051010 55 149 0.0 2.0 0.00 0.00 0.00 86 1012.1
20260505050511 55 0 0.0 2.0 0.00 0.00 0.00 86 1012.2
20260505041530 56 0 0.0 2.0 0.00 0.00 0.00 83 1012.4
20260505041008 56 0 0.0 2.0 0.00 0.00 0.00 83 1012.3
20260505040510 56 142 0.0 2.0 0.00 0.00 0.00 82 1012.3
20260505040028 56 0 0.0 3.0 0.00 0.00 0.00 82 1012.3
20260505035508 56 0 0.0 3.0 0.00 0.00 0.00 81 1012.2
20260505035015 56 0 0.0 2.0 0.00 0.00 0.00 80 1012.2
20260505034532 56 175 0.0 2.0 0.00 0.00 0.00 81 1012.1
20260505034008 56 0 0.0 1.0 0.00 0.00 0.00 81 1012.2
20260505033601 56 0 0.0 2.0 0.00 0.00 0.00 80 1012.3
20260505033030 56 0 0.0 2.0 0.00 0.00 0.00 79 1012.3
20260505032511 56 0 0.0 2.0 0.00 0.00 0.00 78 1012.3
20260505032011 57 0 0.0 4.0 0.00 0.00 0.00 77 1012.3
20260505031530 57 0 0.0 4.0 0.00 0.00 0.00 77 1012.3
20260505031012 57 167 0.0 2.0 0.00 0.00 0.00 76 1012.3
20260505030510 57 0 0.0 2.0 0.00 0.00 0.00 76 1012.5
20260505030145 57 127 0.0 2.0 0.00 0.00 0.00 76 1012.4
20260505025509 57 0 0.0 2.0 0.00 0.00 0.00 75 1012.4
20260505025009 57 148 0.0 2.0 0.00 0.00 0.00 75 1012.4
20260505024529 58 0 0.0 3.0 0.00 0.00 0.00 74 1012.5
20260505024009 58 0 0.0 3.0 0.00 0.00 0.00 73 1012.4
20260505023507 58 0 0.0 2.0 0.00 0.00 0.00 73 1012.4
20260505023027 58 0 0.0 2.0 0.00 0.00 0.00 74 1012.4
20260505022507 58 200 0.0 2.0 0.00 0.00 0.00 73 1012.5
20260505022013 58 0 0.0 2.0 0.00 0.00 0.00 72 1012.5
20260505021529 59 131 0.0 2.0 0.00 0.00 0.00 72 1012.7
20260505021008 58 156 0.0 3.0 0.00 0.00 0.00 72 1012.7
20260505020633 58 130 0.0 3.0 0.00 0.00 0.00 72 1012.6
20260505014010 58 0 0.0 2.0 0.00 0.00 0.00 72 1012.6
20260505013508 57 0 0.0 1.0 0.00 0.00 0.00 72 1012.5
20260505013027 58 0 0.0 1.0 0.00 0.00 0.00 71 1012.5
20260505012509 58 0 0.0 1.0 0.00 0.00 0.00 71 1012.4
20260505012010 58 0 0.0 1.0 0.00 0.00 0.00 70 1012.4
20260505011732 59 0 0.0 1.0 0.00 0.00 0.00 70 1012.3
20260505011012 59 0 0.0 2.0 0.00 0.00 0.00 68 1012.1
20260505010514 60 0 0.0 2.0 0.00 0.00 0.00 67 1012.1
20260505010029 60 0 0.0 2.0 0.00 0.00 0.00 67 1012.1
20260505005516 60 0 0.0 3.0 0.00 0.00 0.00 67 1012.1
20260505005010 61 340 0.0 4.0 0.00 0.00 0.00 66 1012.1
20260505004530 61 191 0.0 4.0 0.00 0.00 0.00 66 1012.1
20260505004012 61 131 0.0 3.0 0.00 0.00 0.00 66 1012.0
20260505003608 60 107 0.0 3.0 0.00 0.00 0.00 67 1012.0
20260505003028 61 0 0.0 4.0 0.00 0.00 0.00 67 1012.0
20260505002507 61 154 0.0 4.0 0.00 0.00 0.00 67 1011.8
20260505002016 61 0 0.0 2.0 0.00 0.00 0.00 67 1011.8
20260505001528 61 148 0.0 2.0 0.00 0.00 0.00 67 1011.8
20260505001015 61 0 0.0 2.0 0.00 0.00 0.00 66 1011.8
20260505000721 61 0 0.0 2.0 0.00 0.00 0.00 67 1011.7
20260505000322 62 157 0.0 2.0 0.00 0.00 0.00 66 1011.6
20260504235510 62 0 0.0 4.0 0.00 0.00 0.00 65 1011.7
20260504235011 63 138 0.0 4.0 0.00 0.00 0.00 64 1011.6
20260504234928 63 143 0.0 3.0 0.00 0.00 0.00 64 1011.6
20260504233510 64 136 1.0 4.0 0.00 0.00 0.00 63 1011.4
20260504233028 64 135 1.0 4.0 0.00 0.00 0.00 62 1011.4
20260504232518 65 0 2.0 4.0 0.00 0.00 0.00 61 1011.4
20260504232010 65 131 0.0 8.0 0.00 0.00 0.00 59 1011.4
20260504231529 65 134 2.0 8.0 0.00 0.00 0.00 57 1011.4
20260504231008 66 132 1.0 6.0 0.00 0.00 0.00 57 1011.3
20260504230509 66 0 0.0 4.0 0.00 0.00 0.00 55 1011.3
20260504230030 66 234 1.0 8.0 0.00 0.00 0.00 55 1011.4
20260504225511 67 0 1.0 8.0 0.00 0.00 0.00 54 1011.4
20260504225116 67 166 2.0 8.0 0.00 0.00 0.00 54 1011.3
20260504224533 67 0 1.0 8.0 0.00 0.00 0.00 53 1011.4
20260504224011 67 163 1.0 8.0 0.00 0.00 0.00 52 1011.4
20260504223610 67 117 1.0 5.0 0.00 0.00 0.00 51 1011.4
20260504223029 68 0 0.0 4.0 0.00 0.00 0.00 51 1011.3
20260504222728 68 215 2.0 7.0 0.00 0.00 0.00 49 1011.3
20260504222042 68 205 0.0 7.0 0.00 0.00 0.00 49 1011.3
20260504221528 68 161 2.0 7.0 0.00 0.00 0.00 47 1011.3
20260504221010 68 162 1.0 6.0 0.00 0.00 0.00 48 1011.2
20260504220750 68 0 2.0 7.0 0.00 0.00 0.00 47 1011.2
20260504220553 68 0 2.0 7.0 0.00 0.00 0.00 47 1011.2
20260504220138 69 213 3.0 7.0 0.00 0.00 0.00 46 1011.2
20260504215508 69 104 1.0 7.0 0.00 0.00 0.00 47 1011.1
20260504215012 68 149 1.0 7.0 0.00 0.00 0.00 47 1011.2
20260504214530 69 134 2.0 8.0 0.00 0.00 0.00 46 1011.3
20260504214008 69 156 2.0 9.0 0.00 0.00 0.00 45 1011.3
20260504213649 69 275 3.0 9.0 0.00 0.00 0.00 45 1011.3
20260504213514 69 275 3.0 9.0 0.00 0.00 0.00 45 1011.3
20260504213033 69 146 4.0 9.0 0.00 0.00 0.00 45 1011.3
20260504212749 70 249 2.0 10.0 0.00 0.00 0.00 45 1011.3
20260504212208 70 130 3.0 10.0 0.00 0.00 0.00 45 1011.3
20260504211610 70 144 4.0 10.0 0.00 0.00 0.00 45 1011.3
20260504211010 70 163 4.0 9.0 0.00 0.00 0.00 44 1011.2
20260504210643 71 248 2.0 8.0 0.00 0.00 0.00 44 1011.3
20260504205510 72 126 1.0 6.0 0.00 0.00 0.00 33 1011.2
20260504205008 72 277 1.0 8.0 0.00 0.00 0.00 40 1011.2
20260504204530 72 0 1.0 9.0 0.00 0.00 0.00 41 1011.3
20260504204010 73 244 2.0 9.0 0.00 0.00 0.00 31 1011.2
20260504203508 73 252 2.0 8.0 0.00 0.00 0.00 31 1011.2
20260504203028 73 241 2.0 7.0 0.00 0.00 0.00 32 1011.3
20260504202544 73 155 2.0 7.0 0.00 0.00 0.00 32 1011.3
20260504202239 73 169 3.0 7.0 0.00 0.00 0.00 32 1011.3
20260504201732 73 0 3.0 9.0 0.00 0.00 0.00 32 1011.3
20260504201315 73 242 2.0 11.0 0.00 0.00 0.00 32 1011.3
20260504200534 73 128 3.0 11.0 0.00 0.00 0.00 32 1011.2
20260504200245 73 178 3.0 10.0 0.00 0.00 0.00 33 1011.4
20260504195743 73 273 3.0 10.0 0.00 0.00 0.00 31 1011.3
20260504195109 73 182 2.0 10.0 0.00 0.00 0.00 31 1011.4
20260504194626 74 192 3.0 8.0 0.00 0.00 0.00 31 1011.6
20260504194008 74 313 1.0 8.0 0.00 0.00 0.00 33 1011.5
20260504193638 73 26 3.0 8.0 0.00 0.00 0.00 32 1011.4
20260504193028 74 175 1.0 7.0 0.00 0.00 0.00 35 1011.6
20260504192710 74 94 1.0 9.0 0.00 0.00 0.00 34 1011.7
20260504192010 73 342 2.0 9.0 0.00 0.00 0.00 35 1011.8
20260504191528 73 223 2.0 9.0 0.00 0.00 0.00 33 1011.8
20260504191016 72 142 2.0 7.0 0.00 0.00 0.00 33 1011.9
20260504191011 73 247 1.0 9.0 0.00 0.00 0.00 35 1012.0
20260504190030 73 200 2.0 9.0 0.00 0.00 0.00 35 1012.0
20260504185510 74 187 3.0 8.0 0.00 0.00 0.00 33 1012.1
20260504185008 74 115 1.0 6.0 0.00 0.00 0.00 35 1012.1
20260504184729 73 252 2.0 7.0 0.00 0.00 0.00 31 1012.2
20260504184137 73 239 2.0 7.0 0.00 0.00 0.00 33 1012.2
20260504175704 73 290 2.0 6.0 0.00 0.00 0.00 33 1012.7
20260504175210 73 168 1.0 7.0 0.00 0.00 0.00 33 1012.7
20260504175012 73 168 1.0 7.0 0.00 0.00 0.00 33 1012.7
20260504174532 73 293 2.0 7.0 0.00 0.00 0.00 32 1012.9
20260504174150 73 0 2.0 7.0 0.00 0.00 0.00 34 1013.0
20260504174010 73 0 2.0 7.0 0.00 0.00 0.00 34 1013.0
20260504173509 72 352 1.0 6.0 0.00 0.00 0.00 34 1013.0
20260504173028 73 262 2.0 9.0 0.00 0.00 0.00 34 1013.2
20260504172619 72 294 2.0 9.0 0.00 0.00 0.00 34 1013.3
20260504172202 71 187 3.0 9.0 0.00 0.00 0.00 34 1013.4
20260504171619 72 250 3.0 7.0 0.00 0.00 0.00 34 1013.4
20260504171013 73 237 2.0 7.0 0.00 0.00 0.00 33 1013.5
20260504170725 72 198 2.0 6.0 0.00 0.00 0.00 34 1013.5
20260504160121 70 259 2.0 7.0 0.00 0.00 0.00 41 1014.2
20260504151012 67 97 2.0 5.0 0.00 0.00 0.00 46 1014.7
20260504150616 68 291 2.0 8.0 0.00 0.00 0.00 46 1014.7
20260504150118 66 0 1.0 9.0 0.00 0.00 0.00 48 1014.7
20260504141011 64 299 3.0 10.0 0.00 0.00 0.00 51 1015.0
20260504140508 64 297 2.0 7.0 0.00 0.00 0.00 52 1015.0
20260504140244 64 245 2.0 7.0 0.00 0.00 0.00 52 1015.1
20260504130640 61 215 2.0 9.0 0.00 0.00 0.00 54 1015.4
20260504130510 61 215 2.0 9.0 0.00 0.00 0.00 54 1015.4
20260504110511 44 0 0.0 0.0 0.00 0.00 0.00 88 1016.4
20260504100510 38 0 0.0 0.0 0.00 0.00 0.00 89 1016.5
20260504081527 39 0 0.0 0.0 0.00 0.00 0.00 87 1016.4
20260504081013 40 0 0.0 0.0 0.00 0.00 0.00 86 1016.3
20260504080509 39 0 0.0 0.0 0.00 0.00 0.00 85 1016.2